{"data":{"norad_id":64269,"epoch":"2026-09-20T08:33:18.113760Z","epoch_age_seconds":150241,"freshness":"FRESH","line1":"1 64269U 25120P   26263.35645965  .00015796  00000+0  47752-3 0  9994","line2":"2 64269  53.1596 286.5842 0001444  88.2495 271.8673 15.34409182 73700","mean_motion":15.34409182,"eccentricity":0.0001444,"inclination_deg":53.1596,"raan_deg":286.5842,"arg_perigee_deg":88.2495,"mean_anomaly_deg":271.8673,"bstar":0.00047752,"rev_number":7370,"period_min":93.847196490512,"perigee_km":461.68813611427,"apogee_km":463.66376289409,"semimajor_km":6840.8129495042,"source":"CELESTRAK","updated_at":"2026-09-21T09:00:35.284147Z"}}